| time (UTC) | temp C | wind direction | speed KPH | gust KPH | rain 1hr cm | rain 24hr cm | rain mn cm | humidity % | barometer mb |
| 20260504081534 | 12 | 212 | 8.0 | 17.7 | 0.00 | 0.00 | 0.00 | 48 | 999.2 |
| 20260504081034 | 12 | 188 | 8.0 | 16.1 | 0.00 | 0.00 | 0.00 | 48 | 999.3 |
| 20260504080533 | 12 | 230 | 8.0 | 16.1 | 0.00 | 0.00 | 0.00 | 47 | 999.4 |
| 20260504050501 | 13 | 225 | 3.2 | 6.4 | 0.00 | 0.00 | 0.00 | 48 | 1002.8 |
| 20260504050002 | 13 | 226 | 3.2 | 4.8 | 0.00 | 0.00 | 0.00 | 47 | 1002.9 |
| 20260504044500 | 13 | 238 | 3.2 | 4.8 | 0.00 | 0.00 | 0.00 | 48 | 1003.2 |
| 20260504043502 | 13 | 239 | 3.2 | 6.4 | 0.00 | 0.00 | 0.00 | 47 | 1003.4 |
| 20260504042502 | 13 | 243 | 3.2 | 4.8 | 0.00 | 0.00 | 0.00 | 47 | 1003.6 |
| 20260504042001 | 13 | 243 | 1.6 | 3.2 | 0.00 | 0.00 | 0.00 | 47 | 1003.4 |
| 20260504041501 | 13 | 243 | 1.6 | 3.2 | 0.00 | 0.00 | 0.00 | 47 | 1003.6 |
| 20260504041000 | 13 | 244 | 1.6 | 4.8 | 0.00 | 0.00 | 0.00 | 48 | 1003.7 |
| 20260504035502 | 13 | 244 | 1.6 | 3.2 | 0.00 | 0.00 | 0.00 | 47 | 1004.1 |
| 20260504035002 | 13 | 244 | 0.0 | 3.2 | 0.00 | 0.00 | 0.00 | 46 | 1004.3 |
| 20260504034500 | 14 | 244 | 0.0 | 0.0 | 0.00 | 0.00 | 0.00 | 46 | 1004.3 |
| 20260504034003 | 14 | 244 | 0.0 | 0.0 | 0.00 | 0.00 | 0.00 | 44 | 1004.4 |
| 20260504033501 | 14 | 244 | 0.0 | 0.0 | 0.00 | 0.00 | 0.00 | 44 | 1004.6 |
| 20260504033003 | 14 | 244 | 0.0 | 0.0 | 0.00 | 0.00 | 0.00 | 44 | 1004.7 |
| 20260504032001 | 15 | 244 | 0.0 | 0.0 | 0.00 | 0.00 | 0.00 | 42 | 1004.9 |
| 20260504031500 | 15 | 244 | 0.0 | 0.0 | 0.00 | 0.00 | 0.00 | 41 | 1004.8 |
| 20260504031001 | 15 | 244 | 0.0 | 0.0 | 0.00 | 0.00 | 0.00 | 40 | 1004.8 |
| 20260504030501 | 16 | 244 | 0.0 | 0.0 | 0.00 | 0.00 | 0.00 | 40 | 1004.8 |
| 20260504030001 | 16 | 244 | 0.0 | 0.0 | 0.00 | 0.00 | 0.00 | 38 | 1004.8 |
| 20260504025502 | 16 | 244 | 0.0 | 0.0 | 0.00 | 0.00 | 0.00 | 37 | 1004.8 |
| 20260504025003 | 16 | 244 | 0.0 | 0.0 | 0.00 | 0.00 | 0.00 | 36 | 1004.8 |
| 20260504024502 | 16 | 244 | 0.0 | 0.0 | 0.00 | 0.00 | 0.00 | 36 | 1004.9 |
| 20260504024003 | 16 | 244 | 0.0 | 0.0 | 0.00 | 0.00 | 0.00 | 36 | 1004.8 |
| 20260504023502 | 16 | 244 | 0.0 | 3.2 | 0.00 | 0.00 | 0.00 | 36 | 1004.9 |
| 20260504023002 | 17 | 244 | 1.6 | 3.2 | 0.00 | 0.00 | 0.00 | 35 | 1004.9 |
| 20260504022502 | 17 | 244 | 1.6 | 3.2 | 0.00 | 0.00 | 0.00 | 34 | 1004.9 |
| 20260504022002 | 17 | 244 | 1.6 | 3.2 | 0.00 | 0.00 | 0.00 | 34 | 1004.9 |
| 20260504021501 | 17 | 244 | 0.0 | 3.2 | 0.00 | 0.00 | 0.00 | 34 | 1004.9 |
| 20260504021003 | 17 | 244 | 1.6 | 4.8 | 0.00 | 0.00 | 0.00 | 33 | 1005.0 |
| 20260504020500 | 17 | 244 | 3.2 | 11.3 | 0.00 | 0.00 | 0.00 | 33 | 1004.9 |
| 20260504020001 | 17 | 244 | 3.2 | 11.3 | 0.00 | 0.00 | 0.00 | 33 | 1005.0 |
| 20260504015001 | 18 | 246 | 3.2 | 8.0 | 0.00 | 0.00 | 0.00 | 32 | 1005.0 |
| 20260504014501 | 18 | 244 | 3.2 | 8.0 | 0.00 | 0.00 | 0.00 | 31 | 1005.0 |
| 20260504014001 | 18 | 251 | 3.2 | 9.7 | 0.00 | 0.00 | 0.00 | 31 | 1005.0 |
| 20260504013502 | 18 | 254 | 3.2 | 11.3 | 0.00 | 0.00 | 0.00 | 31 | 1005.0 |
| 20260504013002 | 18 | 239 | 3.2 | 11.3 | 0.00 | 0.00 | 0.00 | 30 | 1005.1 |
| 20260504012502 | 18 | 229 | 3.2 | 8.0 | 0.00 | 0.00 | 0.00 | 30 | 1005.2 |
| 20260504012002 | 19 | 240 | 3.2 | 11.3 | 0.00 | 0.00 | 0.00 | 30 | 1005.2 |
| 20260504011502 | 19 | 244 | 3.2 | 11.3 | 0.00 | 0.00 | 0.00 | 29 | 1005.4 |
| 20260504010002 | 19 | 246 | 4.8 | 16.1 | 0.00 | 0.00 | 0.00 | 28 | 1005.3 |
| 20260504005502 | 19 | 259 | 6.4 | 16.1 | 0.00 | 0.00 | 0.00 | 27 | 1005.3 |
| 20260504003002 | 20 | 264 | 6.4 | 17.7 | 0.00 | 0.00 | 0.00 | 28 | 1005.2 |
| 20260504002502 | 20 | 252 | 6.4 | 19.3 | 0.00 | 0.00 | 0.00 | 27 | 1005.3 |
| 20260504001501 | 20 | 228 | 6.4 | 14.5 | 0.00 | 0.00 | 0.00 | 27 | 1005.5 |
| 20260504001001 | 20 | 278 | 4.8 | 14.5 | 0.00 | 0.00 | 0.00 | 27 | 1005.8 |
| 20260504000501 | 20 | 206 | 4.8 | 12.9 | 0.00 | 0.00 | 0.00 | 27 | 1005.5 |
| 20260504000001 | 20 | 249 | 6.4 | 14.5 | 0.00 | 0.00 | 0.00 | 27 | 1005.6 |
| 20260503235501 | 20 | 259 | 4.8 | 14.5 | 0.00 | 0.00 | 0.00 | 27 | 1005.8 |
| 20260503235001 | 20 | 293 | 4.8 | 14.5 | 0.00 | 0.00 | 0.00 | 26 | 1005.6 |
| 20260503233957 | 21 | 299 | 3.2 | 14.5 | 0.00 | 0.00 | 0.00 | 26 | 1005.4 |
| 20260503233451 | 21 | 334 | 3.2 | 9.7 | 0.00 | 0.00 | 0.00 | 26 | 1005.3 |
| 20260503232945 | 21 | 230 | 4.8 | 14.5 | 0.00 | 0.00 | 0.00 | 25 | 1005.4 |
| 20260503232438 | 21 | 339 | 6.4 | 14.5 | 0.00 | 0.00 | 0.00 | 25 | 1005.5 |
| 20260503231931 | 21 | 325 | 8.0 | 17.7 | 0.00 | 0.00 | 0.00 | 25 | 1005.4 |
| 20260503231430 | 21 | 250 | 8.0 | 24.1 | 0.00 | 0.00 | 0.00 | 25 | 1005.6 |
| 20260503230930 | 21 | 294 | 6.4 | 24.1 | 0.00 | 0.00 | 0.00 | 24 | 1005.6 |
| 20260503230429 | 22 | 250 | 6.4 | 20.9 | 0.00 | 0.00 | 0.00 | 24 | 1005.9 |
| 20260503225930 | 22 | 295 | 4.8 | 16.1 | 0.00 | 0.00 | 0.00 | 24 | 1005.9 |
| 20260503224930 | 22 | 338 | 4.8 | 19.3 | 0.00 | 0.00 | 0.00 | 24 | 1006.1 |
| 20260503223930 | 22 | 294 | 3.2 | 12.9 | 0.00 | 0.00 | 0.00 | 24 | 1006.0 |
| 20260503223429 | 21 | 67 | 4.8 | 12.9 | 0.00 | 0.00 | 0.00 | 23 | 1006.0 |
| 20260503222929 | 21 | 272 | 6.4 | 12.9 | 0.00 | 0.00 | 0.00 | 23 | 1006.1 |
| 20260503221929 | 21 | 216 | 6.4 | 20.9 | 0.00 | 0.00 | 0.00 | 23 | 1006.3 |
| 20260503221431 | 21 | 323 | 6.4 | 17.7 | 0.00 | 0.00 | 0.00 | 23 | 1006.2 |
| 20260503220929 | 22 | 289 | 4.8 | 17.7 | 0.00 | 0.00 | 0.00 | 23 | 1006.2 |
| 20260503220429 | 21 | 355 | 6.4 | 17.7 | 0.00 | 0.00 | 0.00 | 24 | 1006.3 |
| 20260503215929 | 21 | 271 | 6.4 | 19.3 | 0.00 | 0.00 | 0.00 | 23 | 1006.3 |
| 20260503215431 | 21 | 0 | 6.4 | 19.3 | 0.00 | 0.00 | 0.00 | 23 | 1006.4 |
| 20260503214929 | 21 | 327 | 6.4 | 20.9 | 0.00 | 0.00 | 0.00 | 23 | 1006.4 |
| 20260503214430 | 22 | 322 | 6.4 | 20.9 | 0.00 | 0.00 | 0.00 | 22 | 1006.3 |
| 20260503213929 | 22 | 271 | 6.4 | 14.5 | 0.00 | 0.00 | 0.00 | 24 | 1006.4 |
| 20260503213430 | 22 | 295 | 6.4 | 19.3 | 0.00 | 0.00 | 0.00 | 24 | 1006.5 |
| 20260503212930 | 22 | 338 | 6.4 | 19.3 | 0.00 | 0.00 | 0.00 | 24 | 1006.3 |
| 20260503212431 | 22 | 261 | 6.4 | 17.7 | 0.00 | 0.00 | 0.00 | 24 | 1006.5 |
| 20260503211930 | 22 | 253 | 3.2 | 14.5 | 0.00 | 0.00 | 0.00 | 26 | 1006.5 |
| 20260503211429 | 22 | 329 | 6.4 | 20.9 | 0.00 | 0.00 | 0.00 | 26 | 1006.5 |
| 20260503210929 | 22 | 278 | 8.0 | 20.9 | 0.00 | 0.00 | 0.00 | 25 | 1006.5 |
| 20260503210431 | 22 | 244 | 6.4 | 19.3 | 0.00 | 0.00 | 0.00 | 27 | 1006.7 |
| 20260503205929 | 22 | 317 | 4.8 | 11.3 | 0.00 | 0.00 | 0.00 | 27 | 1006.7 |
| 20260503205429 | 22 | 339 | 4.8 | 16.1 | 0.00 | 0.00 | 0.00 | 28 | 1006.8 |
| 20260503204929 | 21 | 330 | 8.0 | 19.3 | 0.00 | 0.00 | 0.00 | 28 | 1006.8 |
| 20260503204430 | 21 | 337 | 8.0 | 24.1 | 0.00 | 0.00 | 0.00 | 28 | 1006.8 |
| 20260503203930 | 21 | 250 | 6.4 | 24.1 | 0.00 | 0.00 | 0.00 | 28 | 1006.7 |
| 20260503203431 | 21 | 324 | 6.4 | 16.1 | 0.00 | 0.00 | 0.00 | 29 | 1006.7 |
| 20260503202927 | 21 | 323 | 6.4 | 22.5 | 0.00 | 0.00 | 0.00 | 29 | 1006.9 |
| 20260503202424 | 21 | 294 | 8.0 | 22.5 | 0.00 | 0.00 | 0.00 | 30 | 1006.8 |
| 20260503201923 | 21 | 252 | 8.0 | 25.7 | 0.00 | 0.00 | 0.00 | 30 | 1006.9 |
| 20260503201425 | 21 | 274 | 6.4 | 25.7 | 0.00 | 0.00 | 0.00 | 30 | 1007.0 |
| 20260503200924 | 21 | 289 | 9.7 | 24.1 | 0.00 | 0.00 | 0.00 | 29 | 1006.9 |
| 20260503200425 | 21 | 39 | 8.0 | 24.1 | 0.00 | 0.00 | 0.00 | 27 | 1007.0 |
| 20260503195424 | 21 | 11 | 8.0 | 20.9 | 0.00 | 0.00 | 0.00 | 28 | 1007.1 |
| 20260503194925 | 21 | 325 | 8.0 | 17.7 | 0.00 | 0.00 | 0.00 | 27 | 1007.3 |
| 20260503194422 | 21 | 326 | 6.4 | 17.7 | 0.00 | 0.00 | 0.00 | 28 | 1007.4 |
| 20260503193923 | 21 | 227 | 8.0 | 24.1 | 0.00 | 0.00 | 0.00 | 28 | 1007.4 |
| 20260503193421 | 21 | 296 | 8.0 | 24.1 | 0.00 | 0.00 | 0.00 | 27 | 1007.6 |
| 20260503192922 | 21 | 250 | 8.0 | 19.3 | 0.00 | 0.00 | 0.00 | 27 | 1007.5 |
| 20260503192422 | 21 | 336 | 8.0 | 24.1 | 0.00 | 0.00 | 0.00 | 27 | 1007.4 |
| 20260503191923 | 21 | 347 | 6.4 | 24.1 | 0.00 | 0.00 | 0.00 | 27 | 1007.4 |
| 20260503191422 | 21 | 246 | 8.0 | 17.7 | 0.00 | 0.00 | 0.00 | 26 | 1007.4 |
| 20260503190922 | 21 | 321 | 6.4 | 17.7 | 0.00 | 0.00 | 0.00 | 26 | 1007.5 |
| 20260503190422 | 21 | 312 | 6.4 | 16.1 | 0.00 | 0.00 | 0.00 | 27 | 1007.4 |
| 20260503185921 | 21 | 304 | 6.4 | 16.1 | 0.00 | 0.00 | 0.00 | 28 | 1007.5 |
| 20260503185421 | 21 | 53 | 6.4 | 24.1 | 0.00 | 0.00 | 0.00 | 29 | 1007.5 |
| 20260503184419 | 21 | 9 | 6.4 | 19.3 | 0.00 | 0.00 | 0.00 | 29 | 1007.5 |
| 20260503183921 | 21 | 324 | 6.4 | 19.3 | 0.00 | 0.00 | 0.00 | 31 | 1007.5 |
| 20260503183417 | 21 | 216 | 4.8 | 19.3 | 0.00 | 0.00 | 0.00 | 33 | 1007.6 |
| 20260503182918 | 21 | 339 | 6.4 | 19.3 | 0.00 | 0.00 | 0.00 | 33 | 1007.5 |
| 20260503182413 | 21 | 9 | 8.0 | 19.3 | 0.00 | 0.00 | 0.00 | 30 | 1007.6 |
| 20260503181913 | 21 | 30 | 6.4 | 16.1 | 0.00 | 0.00 | 0.00 | 31 | 1007.8 |
| 20260503181414 | 21 | 329 | 4.8 | 16.1 | 0.00 | 0.00 | 0.00 | 34 | 1007.6 |
| 20260503180914 | 21 | 302 | 6.4 | 16.1 | 0.00 | 0.00 | 0.00 | 34 | 1007.7 |
| 20260503180414 | 20 | 332 | 6.4 | 22.5 | 0.00 | 0.00 | 0.00 | 33 | 1007.8 |
| 20260503175913 | 20 | 328 | 8.0 | 22.5 | 0.00 | 0.00 | 0.00 | 33 | 1007.8 |
| 20260503175414 | 21 | 296 | 6.4 | 17.7 | 0.00 | 0.00 | 0.00 | 34 | 1007.8 |
| 20260503174915 | 21 | 295 | 6.4 | 19.3 | 0.00 | 0.00 | 0.00 | 35 | 1008.0 |
| 20260503174414 | 21 | 311 | 6.4 | 19.3 | 0.00 | 0.00 | 0.00 | 35 | 1008.0 |
| 20260503173913 | 20 | 350 | 6.4 | 16.1 | 0.00 | 0.00 | 0.00 | 36 | 1007.9 |
| 20260503172915 | 20 | 347 | 6.4 | 17.7 | 0.00 | 0.00 | 0.00 | 37 | 1008.0 |
| 20260503172413 | 20 | 5 | 6.4 | 17.7 | 0.00 | 0.00 | 0.00 | 38 | 1007.9 |
| 20260503171913 | 20 | 313 | 8.0 | 16.1 | 0.00 | 0.00 | 0.00 | 38 | 1007.8 |
| 20260503171413 | 20 | 324 | 6.4 | 17.7 | 0.00 | 0.00 | 0.00 | 39 | 1007.7 |
| 20260503170912 | 20 | 314 | 8.0 | 22.5 | 0.00 | 0.00 | 0.00 | 39 | 1008.0 |
| 20260503170411 | 20 | 299 | 8.0 | 22.5 | 0.00 | 0.00 | 0.00 | 39 | 1008.1 |
| 20260503150902 | 17 | 307 | 9.7 | 24.1 | 0.00 | 0.00 | 0.00 | 43 | 1007.7 |
| 20260503150402 | 17 | 345 | 9.7 | 24.1 | 0.00 | 0.00 | 0.00 | 44 | 1007.6 |
| 20260503131401 | 13 | 355 | 6.4 | 17.7 | 0.00 | 0.00 | 0.00 | 52 | 1007.0 |
| 20260503130902 | 13 | 315 | 4.8 | 12.9 | 0.00 | 0.00 | 0.00 | 51 | 1006.8 |
| 20260503130402 | 13 | 30 | 4.8 | 16.1 | 0.00 | 0.00 | 0.00 | 51 | 1006.9 |
| 20260503110402 | 11 | 219 | 3.2 | 9.7 | 0.00 | 0.00 | 0.00 | 52 | 1005.5 |